Location: Santiago
(33.4378°S, 70.6505°W)
Time: 07:46:51
(UTC+00:00)

ISS - Pass Details

Date: 09 February 2026
Orbit: 413 x 428 km, 51.6° (Epoch: 13 February)

Event Time Altitude Azimuth Distance (km) Brightness Sun altitude
Rises 23:49:08 0° 300° (WNW) 2,385 0.7 -2.6°
Reaches altitude 10° 23:51:18 10° 292° (WNW) 1,527 -0.1 -3.0°
Maximum altitude 23:54:34 41° 220° (SW) 637 -2.2 -3.7°
Drops below altitude 10° 23:57:54 10° 147° (SSE) 1,548 -1.0 -4.3°
Sets 00:00:07 0° 139° (SE) 2,422 -0.1 -4.8°
